Regional Weather Roundup
Issued by NWS Cleveland, OH

Home | Current Version | Previous Version | Graphics & Text | Print | Product List | Glossary On
Versions: 1 2 3 4 5 6 7 8 9 10 11 12 13 14 15 16 17 18 19 20 21 22 23 24 25 26 27 28 29 30 31 32 33 34 35 36 37 38 39 40 41 42 43 44 45 46 47 48 49 50
675
ASUS41 KCLE 261202
RWRCLE
OHIO REGIONAL WEATHER ROUNDUP
NATIONAL WEATHER SERVICE CLEVELAND, OH
800 AM EDT SUN MAR 26 2017

NOTE: "FAIR" INDICATES FEW OR NO CLOUDS BELOW 12,000 FEET WITH NO
SIGNIFICANT WEATHER AND/OR OBSTRUCTIONS TO VISIBILITY.

OHZ001>008-015>018-024>027-034-035-043-044-261300-
   NORTHWEST OHIO

CITY           SKY/WX    TMP DP  RH WIND       PRES   REMARKS
DEFIANCE       CLOUDY    39  36  89 NE6       30.00S
FINDLAY        MOCLDY    42  36  79 NE5       29.98F
TOLEDO EXPRESS CLOUDY    38  36  92 E8        30.01S
TOLEDO EXEC    CLOUDY    38  37  97 NE8       30.02S FOG
LIMA           MOCLDY    43  41  93 E5        29.97S
$$

OHZ009>014-019>023-028>033-038-089-261300-
   NORTHEAST OHIO

CITY           SKY/WX    TMP DP  RH WIND       PRES   REMARKS
CLE-HOPKINS    CLOUDY    60  48  64 SE10      30.02S
CLE-LAKEFRONT  CLOUDY    58  49  72 E9        29.99F
CUY CO. ARPT   CLOUDY    59  50  72 SE13G22   30.01F
LORAIN-ELYRIA  CLOUDY    47  41  80 SE5       29.99S
ASHTABULA      PTCLDY    53  46  77 SE13      30.06S
AKRON-CANTON   CLOUDY    59  49  69 SE8       30.02F
WOOSTER        CLOUDY    55  49  80 SE8       30.01S
MANSFIELD      PTCLDY    57  49  74 S8        29.98S
YOUNGSTOWN     CLOUDY    54  46  74 SE9       30.08R
$$

OHZ042-051>053-060>062-070>072-077>081-261300-
  SOUTHWEST OHIO

CITY           SKY/WX    TMP DP  RH WIND       PRES   REMARKS
CINC-COVINGTON LGT RAIN  57  55  93 S9        29.97F
CINC-LUNKEN    LGT RAIN  59  56  89 S8        30.00R
HAMILTON       LGT RAIN  59  57  93 S3        29.99R
DAYTON         LGT RAIN  57  55  93 S8        29.98S
WRIGHT-PAT AFB DRIZZLE   57  57 100 SW6       29.99R
DAYTON GENERAL CLOUDY    57  55  93 S5        29.98S
WILMINGTON     LGT RAIN  56  54  93 S5        30.00R
$$

OHZ036-037-039>041-045>050-054>059-063>069-073>076-082>088-261300-
  CENTRAL AND SOUTHEAST OHIO

CITY           SKY/WX    TMP DP  RH WIND       PRES   REMARKS
COLUMBUS       CLOUDY    59  49  69 S5        29.98R
OSU AIRPORT    CLOUDY    56  50  80 SE3       29.97S
BOLTON FIELD   CLOUDY    54  49  85 S8        30.00R
RICKENBACK AFB CLOUDY    55  49  79 SW3       29.99R
NEWARK         CLOUDY    52  48  86 CALM      29.99R
MARION         CLOUDY    46  42  86 E5        29.99R FOG
LANCASTER      CLOUDY    61  48  62 SE3       30.00R
ZANESVILLE     PTCLDY    60  47  61 SE8       30.02R
NEW PHILLY     NOT AVBL
$$




USA.gov is the U.S. government's official web portal to all federal, state and local government web resources and services.